Regional Weather Roundup
Issued by NWS Charleston, SC

Home | Current Version | Previous Version | Text Only | Print | Product List | Glossary On
Versions: 1 2 3 4 5 6 7 8 9 10 11 12 13 14 15 16 17 18 19 20 21 22 23 24 25 26 27 28 29 30 31 32 33 34 35 36 37 38 39 40 41 42 43 44 45 46 47 48 49 50
000
ASUS42 KCHS 300925
RWRCHS

REGIONAL WEATHER ROUNDUP
NATIONAL WEATHER SERVICE CHARLESTON SC
500 AM EDT WED JUL 30 2014

NOTE: "FAIR" INDICATES FEW OR NO CLOUDS BELOW 12,000 FEET WITH NO
SIGNIFICANT WEATHER AND/OR OBSTRUCTIONS TO VISIBILITY.

NOT ALL STATIONS ARE QUALITY CONTROLLED BY THE NATIONAL
WEATHER SERVICE. USE DATA WITH CAUTION...ESPECIALLY
DEWPOINT OBSERVATIONS.

SCZ027-030-031-034>040-042>050-301000-
...SOUTH CAROLINA...

CITY           SKY/WX    TMP DP  RH WIND       PRES   REMARKS
N CHARLESTON   PTCLDY    73  70  90 N3        29.95R
WATERFRONT PRK   N/A     79 N/A N/A NE6         N/A
FORT JOHNSON   NOT AVBL
MOUNT PLEASANT LGT RAIN  72  72 100 CALM      29.95R
JOHNS ISLAND   SUNNY     72  68  88 CALM      29.95R
PINOPOLIS        N/A     79  72  78 CALM      29.86S
MONCKS CORNER    N/A     70  70 100 CALM      29.95S FOG
SUMMERVILLE    FAIR      70  70 100 CALM      29.96S
BEAUFORT MCAS  PTCLDY    74  70  87 CALM      29.94S
BEAUFORT ARPT  FAIR      73  73 100 CALM      29.94R
HILTON HEAD IS CLEAR     73  73 100 CALM      29.95S
GEORGETOWN     NOT AVBL
WALTERBORO     SUNNY     68 N/A N/A CALM      29.96S
ORANGEBURG     CLOUDY    73  62  68 NE3       29.97R
BARNWELL       FAIR      70  64  83 CALM      29.97R
AIKEN          FAIR      68  63  83 N6        30.03R
MANNING        PTSUNNY   68 N/A N/A CALM      29.97R
KINGSTREE      NOT AVBL
COLUMBIA       MOCLDY    73  59  61 VRB3      29.99R
SUMTER         MOCLDY    66  62  88 NE7       29.96R
FLORENCE       CLEAR     67  62  84 NE3       29.97S
MYRTLE BEACH   CLEAR     72  66  83 N5        29.96R
N MYRTLE BEACH CLEAR     70  66  87 NE5       29.96R

$$

GAZ063-065-086>088-099>101-113>116-118-119-134-136>141-150-301000-
...GEORGIA...

CITY           SKY/WX    TMP DP  RH WIND       PRES   REMARKS
SAVANNAH ARPT  MOCLDY    73  66  78 CALM      29.95R
HUNTER AAF     MOCLDY    73  70  91 NW5       29.92S
FORT STEWART   CLOUDY    70  66  88 CALM      29.94R
STATESBORO     NOT AVBL
SYLVANIA       SUNNY     67  67 100 CALM      29.96S
CLAXTON        FAIR     N/A N/A N/A CALM      29.97R
THOMSON        CLEAR     63  63 100 CALM      30.05R
AUGUSTA-BUSH   MOCLDY    69  62  78 N5        29.97R
AUGUSTA-DANIEL CLEAR     71  60  68 N10       29.98S
SWAINSBORO     CLOUDY    68  68 100 NW3       29.98S
VIDALIA          N/A     70  61  73 N5        29.97S
ALMA           PTCLDY    70  61  73 NW3       29.96R
WAYCROSS       PTCLDY    71  65  81 CALM      29.96S
JESUP          FAIR      72  64  78 CALM      29.95S
BRUNSWICK      CLEAR     73  70  88 CALM      29.94S
SAINT SIMONS   PTCLDY    78  73  84 NW5       29.93S

$$

SCZ027-028-034-036>038-045-046-048>050-GAZ119-141-301000-
...LAKE AND SUPPLEMENTAL COASTAL OBSERVATIONS...

STATION/POSITION TIME  TEMP    WIND        PRES    WAVE   SWELL
                       AIR SEA DIR/SP/G            HT/PER HT/PER/DIR
                 (UTC) (F)     (DEG/KT/KT) (MB)    (FT/S) (FT/S/D)
UPR LAKE MARION  NOT AVBL
WINYAH BAY       0900   71     320/  2     1014.0S
LAKE MURRAY      0900   70      10/  4/  9 1015.2R
ACE BASIN NERRS  0900   74        CALM     1014.0S
FORT PULASKI     0900   78     320/  5/  6 1013.8F
SAPELO ISLAND    0900   78      10/  5     1014.0S

$$

ANZ835-935-AMZ111-154-330-350-352-354-374-450-454-472-301000-
...C-MAN AND BUOY OBSERVATIONS...

STATION/POSITION TIME  TEMP    WIND        PRES    WAVE   SWELL
                       AIR SEA DIR/SP/G            HT/PER HT/PER/DIR
                 (UTC) (F)     (DEG/KT/KT) (MB)    (FT/S) (FT/S/D)
FOLLY BEACH CMAN 0900   81      90/  7/  8 1014.4R
BUOY 41004       0900   81 84   60/  8/ 10 1013.3R   2/ 8   2/ 8
BUOY 41008       0900   83 85   70/  6/  8 1013.5R   1/ 8   2/130/ 8
5E ST. MARYS GA  0900      85                N/A     2/ 4
FRYING PAN BUOY  NOT AVBL
BUOY 41025       0900          VRB 12/ 16  1014.5R   3/ 8   2/120/ 8
CAPE LOOKOUT NC  0900   77      50/ 13/ 14 1014.6R
BUOY 41002       0840   76 80  290/ 14/ 17 1013.6R   6/ 7   5/210/ 7
BUOY 41010       0900   83 84  260/ 14/ 16 1013.0S   3/ 5   2/ 90/ 8
BUOY 41012       NOT AVBL
ST AUGUSTINE FL  0900   75     300/  7/  8 1013.7R
CAPERS NEARSHORE 0800   81      70/  6/  8   N/A
FRIPP NEARSHORE  NOT AVBL


$$


USA.gov is the U.S. government's official web portal to all federal, state and local government web resources and services.